Location: *
(48.8489°N, 2.3218°E)
Time: 10:37:57
(UTC+00:00)

Cosmos 1709 Rocket - Pass Details

Date: 23 August 2019
Orbit: 948 x 1002 km, 82.9° (Epoch: 15 September)

Event Time Altitude Azimuth Distance (km) Brightness Sun altitude
Rises 21:03:36 0° 348° (NNW) 3,633 8.0 -19.2°
Reaches altitude 10° 21:06:07 10° 346° (NNW) 2,686 7.2 -19.5°
Maximum altitude 21:12:10 65° 266° (W) 1,050 4.3 -20.2°
Enters shadow 21:16:26 20° 190° (S) 2,043 5.3 -20.6°
